QPF
0.07 0.07 0.07 0.07 0.08 0.09 0.09 0.09 0.08 0.07 0.07 0.07 0.06 0.05 0.05 0.05 0.06 0.05 0.05 0.04 0.03 0.03 0.02 0.02 0.02 0.03 0.02 0.01 0.01 0.01 0.01 0.03 0.05 0.05 0.05 0.05 0.05 0.05
0.06 0.07 0.07 0.08 0.08 0.09 0.11 0.10 0.09 0.07 0.07 0.06 0.05 0.05 0.06 0.06 0.07 0.06 0.05 0.04 0.03 0.02 0.01 0.02 0.02 0.02 0.02 0.01 0.01 0.01 0.01 0.01 0.02 0.04 0.05 0.04 0.04 0.05
0.06 0.06 0.06 0.07 0.08 0.09 0.10 0.09 0.09 0.09 0.09 0.07 0.06 0.06 0.07 0.07 0.05 0.04 0.04 0.03 0.02 0.02 0.02 0.02 0.02 0.02 0.02 0.01 0.01 0.01 0.01 0.01 0.01 0.02 0.03 0.04 0.03 0.03
0.07 0.07 0.06 0.06 0.06 0.08 0.09 0.09 0.08 0.08 0.08 0.07 0.06 0.05 0.06 0.06 0.05 0.05 0.03 0.02 0.02 0.02 0.02 0.02 0.02 0.02 0.02 0.02 0.01 0.01 0.01 0.01 0.02 0.02 0.02 0.03 0.04 0.03
0.07 0.07 0.07 0.06 0.05 0.07 0.09 0.09 0.07 0.07 0.07 0.07 0.06 0.05 0.05 0.05 0.06 0.05 0.05 0.05 0.02 0.02 0.01 0.01 0.02 0.02 0.02 0.02 0.01 0.01 0.01 0.00 0.01 0.02 0.02 0.03 0.03 0.03
0.05 0.05 0.05 0.05 0.06 0.07 0.07 0.07 0.05 0.06 0.05 0.05 0.05 0.04 0.05 0.05 0.05 0.05 0.05 0.05 0.04 0.02 0.02 0.01 0.01 0.01 0.02 0.02 0.02 0.01 0.01 0.01 0.00 0.01 0.02 0.02 0.03 0.03
0.03 0.03 0.03 0.04 0.04 0.05 0.03 0.04 0.04 0.04 0.05 0.04 0.04 0.05 0.05 0.06 0.05 0.05 0.05 0.06 0.05 0.04 0.03 0.02 0.02 0.02 0.01 0.01 0.01 0.01 0.01 0.01 0.01 0.01 0.01 0.02 0.02 0.03
0.03 0.04 0.03 0.04 0.05 0.05 0.03 0.03 0.03 0.02 0.02 0.03 0.03 0.04 0.05 0.06 0.06 0.05 0.05 0.06 0.05 0.05 0.05 0.04 0.03 0.03 0.03 0.03 0.02 0.01 0.01 0.01 0.01 0.01 0.01 0.01 0.02 0.02
0.04 0.05 0.04 0.04 0.04 0.04 0.04 0.03 0.02 0.02 0.02 0.03 0.03 0.03 0.04 0.05 0.05 0.05 0.06 0.06 0.05 0.05 0.06 0.06 0.06 0.06 0.04 0.02 0.02 0.01 0.01 0.01 0.01 0.01 0.01 0.01 0.02 0.03
0.06 0.06 0.06 0.04 0.04 0.04 0.04 0.03 0.02 0.01 0.01 0.02 0.03 0.03 0.02 0.03 0.04 0.04 0.05 0.05 0.05 0.04 0.06 0.06 0.06 0.07 0.05 0.04 0.02 0.01 0.01 0.01 0.01 0.02 0.02 0.02 0.02 0.02
0.07 0.06 0.06 0.05 0.05 0.05 0.04 0.03 0.02 0.02 0.01 0.01 0.02 0.02 0.02 0.02 0.02 0.03 0.04 0.04 0.04 0.04 0.04 0.05 0.05 0.07 0.06 0.06 0.04 0.02 0.01 0.01 0.01 0.01 0.01 0.02 0.03 0.03
0.07 0.07 0.06 0.05 0.06 0.07 0.05 0.03 0.02 0.02 0.01 0.01 0.02 0.01 0.01 0.02 0.01 0.02 0.03 0.04 0.03 0.03 0.03 0.04 0.05 0.06 0.06 0.06 0.05 0.03 0.02 0.01 0.01 0.01 0.01 0.02 0.02 0.03
0.06 0.08 0.08 0.08 0.07 0.05 0.04 0.03 0.02 0.02 0.03 0.02 0.02 0.02 0.01 0.02 0.02 0.02 0.03 0.04 0.04 0.03 0.03 0.04 0.05 0.06 0.07 0.06 0.06 0.05 0.04 0.03 0.02 0.02 0.02 0.02 0.02 0.03
0.06 0.09 0.07 0.07 0.05 0.02 0.01 0.01 0.02 0.03 0.03 0.03 0.02 0.02 0.01 0.02 0.02 0.02 0.03 0.04 0.04 0.03 0.03 0.04 0.05 0.06 0.06 0.06 0.07 0.06 0.05 0.04 0.04 0.03 0.03 0.02 0.03 0.03
0.06 0.06 0.04 0.03 0.02 0.01 0.01 0.02 0.02 0.02 0.02 0.02 0.02 0.02 0.02 0.02 0.02 0.03 0.04 0.05 0.04 0.03 0.03 0.03 0.04 0.05 0.05 0.06 0.07 0.07 0.05 0.05 0.05 0.05 0.04 0.04 0.04 0.03
0.04 0.04 0.03 0.03 0.02 0.02 0.02 0.02 0.02 0.02 0.02 0.02 0.02 0.02 0.02 0.03 0.03 0.04 0.04 0.04 0.04 0.03 0.03 0.03 0.03 0.04 0.05 0.05 0.07 0.07 0.06 0.06 0.06 0.06 0.06 0.05 0.05 0.04
0.04 0.03 0.02 0.02 0.02 0.03 0.03 0.02 0.02 0.02 0.03 0.03 0.03 0.03 0.03 0.04 0.04 0.04 0.05 0.04 0.05 0.05 0.04 0.04 0.05 0.05 0.05 0.05 0.05 0.05 0.05 0.05 0.04 0.05 0.06 0.06 0.05 0.04
0.02 0.03 0.03 0.04 0.04 0.05 0.05 0.05 0.05 0.05 0.06 0.06 0.06 0.06 0.07 0.07 0.06 0.06 0.06 0.05 0.05 0.04 0.03 0.03 0.04 0.04 0.04 0.04 0.04 0.04 0.04 0.03 0.03 0.04 0.05 0.05 0.05 0.03
0.03 0.04 0.05 0.05 0.05 0.05 0.06 0.05 0.05 0.05 0.05 0.05 0.05 0.05 0.05 0.05 0.05 0.05 0.04 0.03 0.03 0.03 0.02 0.02 0.03 0.03 0.03 0.03 0.03 0.02 0.03 0.04 0.03 0.04 0.05 0.06 0.05 0.04
0.02 0.03 0.04 0.04 0.04 0.04 0.04 0.05 0.04 0.04 0.04 0.04 0.03 0.03 0.04 0.04 0.04 0.03 0.03 0.03 0.03 0.03 0.02 0.03 0.04 0.04 0.04 0.04 0.04 0.03 0.03 0.04 0.04 0.04 0.04 0.06 0.07 0.05
0.03 0.04 0.04 0.04 0.04 0.04 0.04 0.04 0.04 0.04 0.04 0.03 0.03 0.02 0.03 0.04 0.04 0.03 0.03 0.03 0.03 0.03 0.03 0.02 0.03 0.03 0.03 0.03 0.04 0.04 0.04 0.04 0.03 0.04 0.04 0.05 0.07 0.07
0.03 0.03 0.03 0.03 0.03 0.03 0.03 0.04 0.04 0.04 0.03 0.03 0.03 0.03 0.03 0.04 0.04 0.04 0.03 0.03 0.03 0.03 0.02 0.02 0.02 0.03 0.04 0.04 0.04 0.05 0.06 0.06 0.04 0.03 0.04 0.05 0.05 0.06
0.03 0.03 0.03 0.02 0.02 0.02 0.03 0.03 0.03 0.03 0.02 0.02 0.02 0.02 0.02 0.03 0.04 0.03 0.03 0.04 0.03 0.03 0.03 0.03 0.03 0.04 0.05 0.05 0.05 0.05 0.06 0.06 0.04 0.04 0.04 0.06 0.07 0.05
MSLP
1014.71 1014.83 1014.93 1015.01 1015.07 1015.08 1015.05 1014.97 1014.85 1014.68 1014.49 1014.29 1014.10 1013.93 1013.80 1013.72 1013.70 1013.73 1013.82 1013.94 1014.08 1014.22 1014.34 1014.42 1014.44 1014.40 1014.31 1014.18 1014.03 1013.88 1013.76 1013.70 1013.71 1013.81 1014.01 1014.31 1014.69 1015.16
1014.45 1014.61 1014.75 1014.85 1014.93 1014.95 1014.94 1014.88 1014.79 1014.66 1014.51 1014.36 1014.20 1014.05 1013.92 1013.83 1013.78 1013.77 1013.80 1013.86 1013.95 1014.05 1014.15 1014.23 1014.27 1014.28 1014.24 1014.17 1014.07 1013.97 1013.87 1013.81 1013.80 1013.85 1013.97 1014.16 1014.44 1014.79
1014.26 1014.44 1014.60 1014.71 1014.78 1014.81 1014.80 1014.76 1014.69 1014.61 1014.51 1014.40 1014.28 1014.17 1014.05 1013.95 1013.87 1013.80 1013.77 1013.76 1013.79 1013.84 1013.90 1013.97 1014.03 1014.07 1014.09 1014.09 1014.06 1014.03 1013.99 1013.97 1013.96 1013.99 1014.06 1014.19 1014.37 1014.61
1014.19 1014.37 1014.52 1014.61 1014.67 1014.69 1014.68 1014.65 1014.61 1014.56 1014.51 1014.46 1014.39 1014.31 1014.21 1014.11 1013.99 1013.88 1013.78 1013.71 1013.66 1013.64 1013.66 1013.70 1013.75 1013.82 1013.88 1013.94 1013.99 1014.03 1014.07 1014.10 1014.13 1014.17 1014.22 1014.30 1014.42 1014.57
1014.22 1014.39 1014.51 1014.58 1014.61 1014.61 1014.60 1014.58 1014.57 1014.56 1014.56 1014.55 1014.53 1014.49 1014.41 1014.31 1014.17 1014.02 1013.87 1013.72 1013.60 1013.52 1013.47 1013.47 1013.51 1013.57 1013.66 1013.76 1013.86 1013.96 1014.06 1014.14 1014.22 1014.30 1014.36 1014.43 1014.51 1014.60
1014.29 1014.43 1014.52 1014.57 1014.58 1014.57 1014.56 1014.55 1014.57 1014.60 1014.64 1014.68 1014.70 1014.69 1014.64 1014.54 1014.39 1014.22 1014.02 1013.82 1013.64 1013.49 1013.39 1013.34 1013.33 1013.37 1013.44 1013.55 1013.67 1013.81 1013.94 1014.08 1014.20 1014.32 1014.41 1014.49 1014.56 1014.63
1014.31 1014.42 1014.50 1014.53 1014.53 1014.52 1014.52 1014.54 1014.59 1014.66 1014.74 1014.82 1014.87 1014.89 1014.86 1014.77 1014.62 1014.43 1014.21 1013.98 1013.76 1013.57 1013.42 1013.31 1013.25 1013.24 1013.28 1013.35 1013.46 1013.59 1013.74 1013.89 1014.05 1014.19 1014.32 1014.43 1014.52 1014.59
1014.20 1014.30 1014.37 1014.40 1014.42 1014.44 1014.47 1014.53 1014.61 1014.71 1014.82 1014.93 1015.01 1015.04 1015.03 1014.95 1014.81 1014.63 1014.41 1014.18 1013.95 1013.73 1013.54 1013.39 1013.28 1013.22 1013.19 1013.21 1013.27 1013.36 1013.48 1013.62 1013.78 1013.94 1014.09 1014.23 1014.35 1014.44
1013.92 1014.03 1014.11 1014.17 1014.23 1014.29 1014.37 1014.47 1014.59 1014.73 1014.86 1014.98 1015.07 1015.11 1015.10 1015.04 1014.92 1014.76 1014.57 1014.36 1014.15 1013.94 1013.74 1013.57 1013.42 1013.30 1013.20 1013.15 1013.13 1013.15 1013.21 1013.31 1013.44 1013.59 1013.75 1013.91 1014.05 1014.17
1013.48 1013.61 1013.73 1013.84 1013.96 1014.08 1014.22 1014.37 1014.53 1014.69 1014.83 1014.95 1015.04 1015.07 1015.07 1015.01 1014.92 1014.80 1014.65 1014.49 1014.32 1014.15 1013.98 1013.81 1013.63 1013.47 1013.31 1013.18 1013.07 1013.01 1012.99 1013.02 1013.10 1013.21 1013.36 1013.51 1013.67 1013.80
1012.94 1013.11 1013.28 1013.45 1013.64 1013.83 1014.03 1014.22 1014.41 1014.58 1014.72 1014.83 1014.89 1014.91 1014.90 1014.85 1014.79 1014.71 1014.62 1014.53 1014.43 1014.32 1014.19 1014.05 1013.88 1013.69 1013.49 1013.29 1013.11 1012.96 1012.85 1012.80 1012.81 1012.87 1012.98 1013.11 1013.25 1013.38
1012.40 1012.61 1012.83 1013.06 1013.31 1013.55 1013.80 1014.03 1014.23 1014.40 1014.52 1014.60 1014.64 1014.64 1014.61 1014.57 1014.53 1014.49 1014.47 1014.45 1014.43 1014.39 1014.33 1014.24 1014.10 1013.91 1013.69 1013.45 1013.21 1012.99 1012.81 1012.68 1012.61 1012.61 1012.66 1012.74 1012.85 1012.95
1011.93 1012.17 1012.43 1012.70 1012.98 1013.26 1013.53 1013.77 1013.97 1014.12 1014.22 1014.26 1014.27 1014.25 1014.21 1014.18 1014.16 1014.17 1014.20 1014.25 1014.31 1014.35 1014.36 1014.32 1014.22 1014.06 1013.84 1013.59 1013.32 1013.05 1012.81 1012.62 1012.49 1012.42 1012.41 1012.44 1012.49 1012.55
1011.57 1011.81 1012.08 1012.36 1012.65 1012.93 1013.20 1013.42 1013.60 1013.73 1013.79 1013.81 1013.79 1013.75 1013.71 1013.69 1013.69 1013.74 1013.82 1013.94 1014.06 1014.16 1014.24 1014.25 1014.20 1014.07 1013.88 1013.63 1013.36 1013.07 1012.81 1012.58 1012.41 1012.29 1012.21 1012.18 1012.17 1012.18
1011.29 1011.51 1011.75 1012.01 1012.27 1012.52 1012.75 1012.95 1013.10 1013.19 1013.23 1013.23 1013.20 1013.16 1013.12 1013.12 1013.15 1013.24 1013.36 1013.51 1013.68 1013.83 1013.95 1014.00 1013.99 1013.90 1013.74 1013.52 1013.26 1012.99 1012.73 1012.49 1012.29 1012.14 1012.02 1011.94 1011.87 1011.82
1011.01 1011.19 1011.38 1011.58 1011.79 1011.98 1012.16 1012.31 1012.42 1012.49 1012.52 1012.52 1012.50 1012.47 1012.47 1012.49 1012.56 1012.67 1012.82 1013.00 1013.19 1013.37 1013.50 1013.58 1013.59 1013.53 1013.40 1013.22 1012.99 1012.75 1012.51 1012.29 1012.09 1011.92 1011.78 1011.66 1011.55 1011.44
1010.66 1010.77 1010.89 1011.02 1011.15 1011.28 1011.40 1011.50 1011.58 1011.63 1011.66 1011.68 1011.69 1011.71 1011.75 1011.82 1011.93 1012.07 1012.25 1012.44 1012.63 1012.80 1012.93 1013.01 1013.02 1012.98 1012.87 1012.72 1012.53 1012.33 1012.13 1011.93 1011.75 1011.59 1011.44 1011.30 1011.16 1011.02
1010.16 1010.20 1010.24 1010.29 1010.34 1010.40 1010.46 1010.52 1010.58 1010.64 1010.69 1010.75 1010.81 1010.90 1011.00 1011.13 1011.28 1011.46 1011.65 1011.84 1012.02 1012.17 1012.28 1012.34 1012.34 1012.30 1012.20 1012.07 1011.92 1011.76 1011.59 1011.43 1011.27 1011.13 1010.98 1010.84 1010.69 1010.54
1009.49 1009.47 1009.44 1009.42 1009.40 1009.40 1009.42 1009.45 1009.50 1009.57 1009.66 1009.78 1009.91 1010.06 1010.24 1010.43 1010.63 1010.84 1011.05 1011.24 1011.40 1011.52 1011.60 1011.63 1011.62 1011.56 1011.47 1011.35 1011.22 1011.08 1010.95 1010.82 1010.69 1010.56 1010.43 1010.29 1010.15 1010.00
1008.69 1008.62 1008.54 1008.47 1008.41 1008.37 1008.35 1008.37 1008.43 1008.52 1008.65 1008.82 1009.02 1009.24 1009.48 1009.74 1009.99 1010.23 1010.45 1010.64 1010.79 1010.89 1010.94 1010.95 1010.91 1010.84 1010.74 1010.63 1010.51 1010.40 1010.28 1010.17 1010.05 1009.94 1009.82 1009.69 1009.56 1009.43
1007.83 1007.74 1007.64 1007.54 1007.45 1007.39 1007.36 1007.38 1007.44 1007.56 1007.72 1007.93 1008.18 1008.46 1008.76 1009.06 1009.36 1009.63 1009.87 1010.06 1010.20 1010.29 1010.33 1010.32 1010.27 1010.19 1010.09 1009.98 1009.87 1009.76 1009.66 1009.55 1009.45 1009.34 1009.22 1009.11 1008.99 1008.88
1007.01 1006.92 1006.82 1006.72 1006.63 1006.56 1006.53 1006.55 1006.62 1006.74 1006.92 1007.16 1007.43 1007.75 1008.08 1008.41 1008.73 1009.02 1009.28 1009.48 1009.63 1009.72 1009.76 1009.75 1009.71 1009.64 1009.55 1009.45 1009.34 1009.24 1009.13 1009.03 1008.92 1008.81 1008.70 1008.59 1008.48 1008.39
1006.31 1006.24 1006.15 1006.07 1005.99 1005.93 1005.90 1005.91 1005.98 1006.10 1006.27 1006.51 1006.78 1007.10 1007.43 1007.77 1008.10 1008.41 1008.67 1008.89 1009.05 1009.16 1009.23 1009.24 1009.22 1009.17 1009.10 1009.02 1008.93 1008.83 1008.73 1008.63 1008.52 1008.41 1008.30 1008.19 1008.10 1008.02
Thickness
5661 5661 5659 5659 5658 5657 5655 5652 5645 5641 5643 5647 5648 5650 5650 5650 5647 5646 5645 5644 5643 5642 5641 5640 5640 5640 5641 5642 5643 5645 5647 5649 5651 5652 5653 5655 5656 5657
5658 5657 5655 5654 5653 5652 5650 5648 5646 5641 5638 5641 5642 5643 5643 5643 5641 5640 5639 5638 5636 5635 5634 5633 5634 5634 5635 5636 5637 5639 5641 5642 5644 5645 5647 5648 5649 5651
5655 5654 5651 5650 5648 5647 5645 5643 5641 5638 5633 5634 5636 5636 5636 5635 5634 5633 5632 5631 5629 5628 5628 5627 5628 5628 5629 5631 5632 5633 5634 5636 5637 5639 5640 5642 5643 5645
5651 5649 5647 5647 5644 5642 5640 5638 5636 5634 5630 5627 5628 5629 5629 5629 5628 5627 5627 5627 5625 5625 5624 5623 5623 5623 5624 5625 5626 5627 5628 5629 5631 5632 5633 5635 5636 5637
5647 5645 5643 5642 5639 5637 5635 5633 5631 5630 5627 5624 5622 5623 5623 5623 5622 5621 5621 5620 5621 5621 5620 5619 5618 5618 5618 5619 5620 5621 5622 5623 5624 5625 5626 5627 5628 5629
5644 5642 5640 5638 5635 5633 5631 5628 5626 5623 5622 5619 5618 5618 5617 5617 5615 5613 5612 5613 5613 5615 5614 5614 5613 5612 5613 5614 5615 5615 5615 5615 5616 5617 5618 5619 5620 5621
5640 5639 5637 5635 5632 5629 5627 5624 5621 5618 5615 5613 5611 5611 5610 5608 5606 5606 5605 5606 5607 5607 5606 5606 5606 5606 5606 5607 5607 5608 5608 5609 5609 5609 5610 5611 5612 5613
5636 5634 5633 5630 5628 5625 5623 5620 5617 5613 5610 5607 5605 5604 5602 5601 5601 5600 5598 5596 5596 5600 5597 5597 5598 5599 5600 5601 5601 5602 5601 5601 5602 5602 5602 5603 5604 5606
5633 5631 5629 5628 5624 5621 5618 5616 5613 5610 5607 5603 5600 5598 5597 5597 5595 5594 5592 5590 5589 5591 5590 5589 5590 5590 5593 5595 5595 5595 5595 5594 5594 5595 5595 5596 5597 5598
5631 5629 5625 5621 5620 5616 5614 5611 5608 5606 5603 5601 5599 5596 5595 5593 5591 5589 5586 5586 5586 5585 5584 5580 5582 5582 5585 5586 5587 5588 5588 5587 5587 5587 5588 5589 5590 5590
5628 5626 5622 5619 5615 5612 5609 5605 5603 5601 5599 5598 5596 5593 5591 5588 5586 5583 5581 5579 5578 5578 5578 5575 5575 5576 5576 5577 5579 5580 5580 5581 5580 5581 5581 5582 5582 5583
5625 5622 5619 5616 5611 5607 5604 5600 5597 5595 5594 5593 5591 5589 5587 5585 5582 5578 5576 5573 5572 5571 5573 5571 5569 5567 5567 5571 5572 5572 5572 5573 5573 5574 5574 5574 5575 5574
5621 5619 5617 5613 5608 5603 5600 5597 5594 5591 5590 5588 5586 5585 5583 5581 5579 5577 5574 5571 5568 5566 5567 5565 5563 5561 5559 5561 5564 5565 5566 5567 5566 5567 5567 5567 5567 5568
5617 5616 5613 5609 5605 5600 5597 5594 5591 5588 5586 5583 5581 5580 5578 5577 5575 5574 5571 5569 5566 5564 5563 5560 5557 5555 5553 5552 5554 5557 5558 5560 5560 5561 5561 5561 5560 5561
5613 5611 5608 5604 5601 5598 5595 5592 5588 5584 5582 5579 5578 5576 5575 5573 5571 5569 5568 5565 5563 5562 5560 5558 5554 5551 5549 5547 5548 5549 5550 5552 5554 5554 5555 5554 5554 5555
5608 5606 5604 5602 5598 5596 5593 5590 5587 5583 5580 5577 5575 5574 5572 5570 5567 5565 5562 5560 5558 5557 5557 5555 5552 5548 5545 5544 5543 5544 5545 5546 5547 5548 5548 5548 5549 5550
5604 5603 5602 5601 5598 5595 5592 5590 5587 5582 5578 5575 5572 5569 5567 5565 5563 5561 5558 5556 5553 5551 5551 5550 5548 5546 5543 5540 5540 5540 5540 5541 5541 5541 5542 5542 5544 5544
5601 5601 5600 5598 5595 5593 5590 5587 5584 5581 5577 5573 5568 5565 5562 5560 5558 5557 5554 5551 5548 5547 5546 5545 5542 5540 5538 5538 5537 5537 5537 5536 5537 5537 5537 5536 5537 5539
5598 5599 5597 5595 5593 5590 5587 5584 5581 5578 5574 5570 5566 5563 5560 5557 5555 5553 5550 5548 5545 5544 5543 5541 5538 5535 5533 5533 5534 5534 5533 5532 5532 5532 5532 5532 5533 5534
5599 5598 5596 5593 5590 5587 5584 5581 5578 5574 5570 5567 5563 5560 5557 5554 5551 5549 5548 5545 5542 5540 5538 5537 5535 5533 5530 5529 5530 5530 5529 5529 5528 5527 5528 5529 5528 5529
5601 5599 5596 5592 5589 5585 5581 5578 5574 5570 5566 5563 5560 5556 5553 5551 5548 5547 5544 5542 5539 5537 5534 5533 5532 5531 5529 5527 5525 5526 5526 5526 5526 5524 5525 5524 5525 5524
5599 5597 5594 5591 5587 5583 5578 5574 5570 5566 5562 5559 5556 5553 5551 5548 5546 5543 5541 5539 5536 5534 5532 5530 5529 5527 5524 5522 5521 5521 5522 5521 5521 5521 5521 5520 5520 5519
5596 5594 5591 5587 5584 5580 5576 5571 5566 5562 5558 5555 5552 5549 5547 5544 5542 5540 5538 5536 5533 5531 5528 5525 5524 5522 5520 5518 5517 5516 5517 5517 5516 5515 5514 5515 5515 5515